Wind_Speed
30 30 30 30 30 29 30 30 30 29 29 28 28 27 26 25 24 24 24 24 24 23 23 23 23 23 22 22 22 21 21 20 20 20 20 20 20 20 20 20 20 20 20
30 30 30 30 30 30 30 30 31 31 31 30 30 30 29 28 27 27 26 27 26 26 26 25 25 26 25 24 24 23 23 23 22 22 22 22 22 22 22 22 22 22 22
32 31 31 31 31 30 30 31 31 31 32 32 32 31 31 31 31 30 29 29 29 28 28 28 28 28 27 27 27 26 26 25 24 24 24 24 24 24 24 24 23 23 24
34 34 34 33 32 32 32 32 32 32 33 33 33 33 33 32 32 31 31 31 31 31 31 30 30 30 30 30 29 29 28 27 26 26 26 26 26 26 26 26 26 26 25
36 36 36 35 34 33 33 34 34 34 34 35 34 35 35 34 33 33 33 33 33 33 33 32 32 32 32 32 32 31 30 30 29 29 28 29 29 29 28 28 28 28 28
37 37 37 36 36 36 35 35 35 35 35 36 36 37 36 36 36 35 35 35 35 35 35 35 35 34 34 34 33 33 33 32 32 31 31 31 31 31 30 31 31 30 30
38 37 37 37 37 37 38 38 37 37 37 37 36 36 37 37 37 38 37 36 36 37 37 37 38 37 36 36 36 35 35 34 34 34 34 33 32 33 33 33 33 33 32
38 38 38 38 38 38 39 39 39 39 38 38 38 37 38 38 39 39 38 38 38 38 39 39 39 39 38 38 39 39 38 37 36 36 36 36 35 35 34 34 35 34 34
40 39 39 39 39 40 40 41 41 41 40 40 40 40 39 38 38 39 40 39 39 39 40 40 41 40 40 40 40 41 41 39 39 38 39 39 38 37 36 36 36 36 36
41 41 40 40 39 40 41 41 41 41 41 41 41 40 41 41 40 39 40 39 40 40 41 41 42 43 42 42 42 42 42 42 41 40 40 40 40 39 38 39 39 39 38
41 42 42 42 41 41 41 42 42 42 42 41 41 41 41 42 42 41 41 41 42 42 43 43 43 43 44 43 44 44 44 43 43 42 41 41 42 42 42 41 41 41 41
42 42 42 43 43 43 42 42 42 42 43 43 43 43 43 42 42 42 42 43 43 44 44 44 44 45 45 44 44 44 45 44 44 43 43 43 43 44 45 44 44 43 44
41 42 42 43 42 42 43 43 43 42 43 43 44 44 44 44 44 44 44 43 44 44 44 44 45 44 44 45 45 46 46 45 46 45 45 45 46 46 46 46 46 46 46
41 41 41 42 42 43 43 43 43 43 43 44 44 45 45 44 45 45 45 45 46 45 45 44 45 45 45 45 46 46 47 46 46 47 48 47 47 47 47 47 48 48 48
41 41 41 41 42 43 44 45 44 45 45 44 45 46 46 46 46 46 46 46 47 47 46 46 46 46 46 47 47 47 47 46 47 47 48 48 49 49 49 49 49 49 49
43 43 42 43 43 43 44 45 45 45 45 45 45 46 45 45 46 46 46 47 47 47 47 48 48 48 48 49 48 48 48 47 47 47 48 49 50 50 50 51 51 51 50
43 43 43 43 43 44 45 46 46 45 45 45 45 45 45 46 46 46 47 47 47 48 48 48 48 48 48 48 48 49 49 48 48 48 48 49 50 50 51 52 52 51 51
43 43 43 43 42 43 44 44 45 44 44 44 45 45 45 46 46 45 46 46 47 48 48 48 47 47 47 48 49 49 49 49 49 49 49 50 51 51 51 51 52 52 53
43 43 43 43 42 43 43 43 44 43 44 45 45 45 44 45 45 45 46 47 48 48 48 48 48 48 47 48 49 50 50 49 49 49 50 51 51 51 51 51 53 54 54
42 43 43 43 43 43 43 42 43 43 44 44 45 44 44 44 45 46 46 47 47 48 48 47 48 49 48 48 48 49 49 48 49 50 51 52 52 53 52 53 53 54 55
41 42 43 43 42 42 42 42 43 43 44 44 44 44 45 45 45 46 47 47 48 48 48 48 48 48 48 47 47 48 49 49 48 49 51 52 53 53 53 53 54 55 56
40 41 41 42 42 42 42 42 43 43 43 43 43 44 44 44 45 46 47 46 47 48 48 48 48 47 46 46 47 48 49 49 49 49 51 51 52 53 54 54 55 56 57
41 40 41 41 41 41 41 41 41 41 42 43 43 43 44 44 45 45 45 45 46 47 48 48 48 47 47 46 47 48 49 49 49 50 51 52 53 54 55 56 56 56 56
41 41 41 41 41 41 41 41 42 42 42 42 42 42 43 44 45 45 45 45 45 46 46 47 46 46 46 46 47 48 49 50 50 50 51 52 53 54 54 55 55 54 54
42 42 42 41 41 41 41 41 42 41 41 41 41 41 42 43 43 43 43 43 43 44 44 46 45 45 46 46 47 47 48 49 50 50 51 52 52 53 53 54 54 53 53
42 42 41 41 41 41 40 40 40 40 40 40 40 40 42 42 42 42 42 42 43 43 43 44 45 45 45 46 46 46 48 49 49 50 50 51 52 52 51 50 51 51 52
Wind_Direction
244 244 244 245 247 248 249 248 249 250 251 252 253 254 255 256 257 258 258 258 258 257 257 259 262 265 268 268 270 270 272 273 274 276 278 280 283 285 288 290 292 294 294
245 245 244 246 247 248 250 250 250 251 252 254 255 255 257 257 258 259 259 258 258 256 258 260 262 265 267 267 268 269 269 270 272 275 278 279 280 283 285 288 290 290 291
247 247 246 247 248 249 251 252 252 251 252 253 255 256 258 258 259 260 259 258 257 257 259 261 263 265 265 266 266 267 267 267 270 273 276 278 278 281 284 285 287 289 289
248 248 249 249 249 250 252 253 254 253 254 254 255 256 257 259 260 261 261 260 258 257 259 261 263 265 265 265 265 266 265 266 268 272 274 277 278 278 281 283 284 285 287
249 249 251 252 251 252 253 254 255 255 255 255 256 257 258 259 260 261 262 262 261 259 259 261 262 263 264 264 265 266 265 266 267 271 273 275 277 278 278 281 282 283 284
250 250 251 252 253 253 254 255 256 257 257 257 257 258 259 260 261 261 262 263 262 261 261 261 262 262 264 264 265 265 264 265 266 269 271 274 275 277 278 279 280 282 283
250 252 252 252 253 254 256 257 259 259 259 259 261 261 261 261 261 262 263 262 262 261 260 260 261 262 263 264 264 264 263 264 266 267 269 272 274 276 278 279 279 280 281
250 252 252 254 255 256 257 259 260 260 260 260 261 262 263 262 261 262 262 263 262 262 261 260 261 263 264 265 264 264 263 263 264 266 268 271 273 274 277 278 278 279 279
251 252 254 255 255 256 257 259 260 260 260 261 262 263 264 262 262 262 262 262 262 262 261 261 262 263 264 266 266 264 264 263 265 268 268 269 271 273 276 277 278 279 279
252 253 254 255 256 257 258 259 260 260 260 262 262 264 264 263 263 263 263 263 263 263 262 262 263 263 264 266 266 266 265 264 266 269 268 269 271 273 274 276 277 278 280
253 254 255 256 256 258 260 261 261 260 261 261 262 263 264 264 263 264 263 263 263 263 263 263 264 264 265 266 267 267 267 266 267 269 269 271 272 273 273 276 276 278 279
254 255 256 257 259 260 261 262 262 261 260 261 262 263 264 264 264 264 264 263 263 262 262 264 264 266 267 267 268 268 267 267 267 270 271 272 273 274 275 276 276 277 278
255 256 257 258 259 260 261 262 262 261 261 262 262 263 263 264 264 265 264 264 264 263 263 264 265 265 266 267 268 268 267 267 268 270 270 271 273 275 276 276 275 276 277
255 256 257 257 258 260 262 263 262 262 262 263 263 263 263 263 264 265 265 265 264 262 262 264 265 266 266 267 268 269 268 269 270 270 271 272 273 274 275 276 276 276 277
254 256 257 259 259 260 261 262 263 263 263 263 264 264 264 264 265 266 266 266 266 264 262 264 265 266 267 268 269 269 268 269 270 271 272 273 274 275 275 275 276 277 278
255 256 257 259 261 262 262 262 262 263 263 264 264 264 264 265 265 265 266 267 267 266 265 265 266 267 268 268 269 268 268 270 271 272 273 275 275 276 276 275 276 277 278
257 257 257 258 260 262 263 263 263 263 264 264 264 264 265 266 266 266 267 268 268 267 267 266 267 268 268 268 269 268 268 270 272 273 274 275 276 277 277 276 277 277 277
257 258 259 259 260 261 262 263 264 264 264 264 265 266 267 266 266 267 267 268 268 268 268 267 267 268 269 269 269 267 268 270 272 273 274 275 276 277 279 278 277 277 278
257 259 259 260 260 261 262 263 263 264 264 265 266 266 267 267 266 267 268 267 268 268 269 268 268 268 269 270 269 267 268 270 271 272 274 275 277 278 279 279 278 278 279
258 259 259 260 260 260 261 262 263 264 265 266 266 266 267 267 266 267 268 268 268 267 267 268 268 269 270 271 270 269 268 270 271 273 274 275 277 278 279 280 279 279 280
258 259 259 259 260 260 260 261 263 264 266 267 266 267 267 267 267 267 268 268 267 266 266 268 269 270 270 271 271 270 269 271 272 273 274 275 277 279 279 280 280 281 281
259 260 260 259 260 259 260 262 264 265 267 267 268 268 268 267 268 268 268 268 267 266 266 267 269 270 271 271 271 271 271 271 271 274 275 276 278 278 280 281 282 282 282
259 261 262 261 261 261 261 263 264 266 267 267 268 268 267 267 268 267 267 267 268 268 268 268 269 271 272 272 272 272 272 272 273 274 276 277 278 279 281 281 282 283 284
260 261 261 261 262 262 262 263 264 266 266 266 267 268 267 267 267 267 267 268 268 269 269 269 269 271 272 272 273 272 272 272 274 276 278 279 279 280 282 282 282 283 284
261 261 260 260 261 263 263 264 264 265 265 267 267 267 268 269 269 268 268 269 269 269 270 269 269 270 271 273 273 273 273 274 275 277 279 280 281 282 283 283 284 284 284
260 261 261 262 262 262 263 264 265 264 266 267 268 268 269 269 269 269 269 269 269 269 270 270 269 270 271 273 273 275 276 276 276 277 279 280 282 284 283 284 285 285 285
Height
5810 5812 5814 5817 5819 5821 5823 5825 5827 5829 5830 5832 5833 5835 5836 5837 5838 5839 5839 5840 5840 5841 5842 5843 5843 5844 5844 5844 5845 5845 5845 5845 5845 5846 5846 5845 5845 5845 5844 5843 5843 5842 5841
5803 5806 5808 5811 5813 5815 5817 5819 5821 5823 5824 5826 5827 5829 5830 5831 5832 5833 5834 5834 5835 5836 5836 5837 5838 5838 5839 5839 5839 5840 5840 5840 5840 5840 5840 5840 5840 5840 5839 5839 5838 5837 5836
5797 5799 5802 5804 5807 5809 5811 5813 5814 5816 5818 5819 5821 5822 5824 5825 5826 5827 5827 5828 5829 5830 5831 5832 5832 5832 5833 5833 5833 5834 5834 5835 5835 5835 5835 5835 5835 5834 5834 5834 5833 5832 5831
5789 5792 5795 5797 5800 5802 5804 5806 5808 5810 5811 5812 5814 5815 5817 5818 5819 5820 5821 5822 5822 5824 5824 5825 5826 5826 5826 5827 5827 5828 5828 5829 5829 5829 5829 5829 5829 5828 5828 5828 5827 5827 5826
5782 5785 5788 5790 5792 5795 5796 5798 5800 5802 5804 5805 5806 5808 5809 5811 5812 5813 5814 5815 5815 5816 5817 5818 5818 5819 5819 5820 5820 5821 5821 5822 5822 5822 5823 5823 5822 5822 5822 5821 5821 5820 5820
5775 5777 5780 5782 5785 5787 5788 5790 5792 5794 5795 5797 5799 5800 5802 5803 5804 5805 5806 5807 5808 5809 5809 5810 5810 5811 5812 5812 5813 5813 5814 5814 5815 5815 5816 5816 5815 5815 5814 5814 5814 5813 5813
5766 5769 5772 5774 5776 5779 5780 5782 5784 5785 5787 5789 5790 5792 5793 5794 5796 5796 5797 5798 5799 5800 5801 5801 5802 5803 5804 5804 5805 5805 5805 5806 5807 5807 5808 5808 5808 5807 5807 5807 5806 5806 5805
5758 5761 5763 5766 5768 5770 5772 5774 5775 5777 5778 5780 5782 5783 5784 5786 5786 5788 5789 5789 5790 5791 5792 5793 5794 5794 5795 5795 5796 5796 5797 5797 5798 5798 5799 5800 5799 5799 5799 5798 5798 5797 5797
5750 5752 5755 5757 5759 5761 5763 5765 5766 5768 5769 5771 5772 5774 5775 5776 5777 5779 5779 5780 5781 5782 5783 5784 5784 5785 5786 5786 5786 5787 5787 5788 5789 5789 5790 5790 5791 5791 5790 5789 5789 5789 5788
5741 5743 5745 5748 5750 5752 5754 5755 5757 5758 5760 5761 5762 5763 5765 5766 5767 5769 5770 5771 5771 5772 5773 5774 5775 5776 5776 5777 5777 5777 5778 5778 5779 5779 5780 5780 5781 5781 5781 5780 5780 5779 5779
5731 5734 5736 5738 5740 5742 5744 5745 5747 5748 5750 5751 5752 5753 5754 5755 5757 5758 5760 5761 5762 5762 5762 5763 5764 5765 5766 5766 5767 5767 5767 5768 5769 5769 5770 5770 5770 5770 5770 5770 5769 5769 5769
5721 5724 5726 5728 5730 5732 5734 5735 5737 5738 5740 5741 5742 5743 5743 5745 5746 5747 5749 5750 5751 5751 5752 5752 5753 5754 5754 5755 5755 5756 5756 5757 5758 5758 5759 5759 5759 5759 5759 5759 5758 5758 5757
5711 5714 5716 5718 5720 5721 5723 5724 5726 5727 5729 5730 5731 5732 5733 5734 5735 5735 5736 5738 5739 5740 5740 5741 5742 5742 5743 5743 5744 5744 5745 5746 5747 5747 5747 5748 5748 5747 5748 5747 5747 5746 5746
5701 5703 5705 5707 5709 5711 5712 5714 5715 5716 5717 5718 5719 5720 5721 5722 5723 5724 5725 5726 5727 5728 5729 5730 5730 5731 5731 5731 5732 5732 5733 5734 5734 5735 5735 5735 5735 5735 5735 5735 5734 5734 5733
5690 5693 5695 5697 5698 5700 5701 5702 5703 5705 5706 5707 5708 5709 5710 5711 5711 5712 5713 5714 5715 5716 5718 5718 5719 5719 5719 5719 5720 5721 5721 5722 5722 5723 5723 5723 5722 5722 5722 5722 5721 5721 5720
5680 5682 5684 5686 5687 5689 5690 5691 5692 5693 5694 5695 5696 5697 5698 5699 5700 5700 5701 5702 5702 5704 5705 5706 5707 5707 5707 5707 5708 5709 5709 5710 5710 5710 5710 5710 5709 5709 5709 5708 5708 5707 5706
5669 5671 5673 5675 5676 5677 5679 5680 5681 5682 5683 5684 5685 5686 5687 5688 5688 5689 5689 5690 5690 5691 5692 5694 5694 5694 5695 5695 5695 5696 5697 5697 5697 5697 5697 5697 5696 5695 5695 5694 5693 5693 5692
5658 5660 5662 5663 5665 5666 5667 5668 5670 5671 5672 5673 5674 5675 5675 5676 5677 5677 5677 5677 5678 5678 5679 5681 5681 5682 5682 5683 5683 5684 5685 5685 5685 5685 5684 5684 5683 5683 5681 5680 5679 5679 5678
5647 5649 5651 5652 5654 5655 5656 5657 5659 5660 5661 5662 5662 5663 5663 5664 5665 5665 5665 5666 5666 5666 5667 5668 5669 5669 5670 5670 5670 5671 5672 5672 5672 5672 5671 5671 5670 5669 5668 5666 5665 5664 5663
5636 5638 5640 5641 5643 5644 5645 5646 5647 5648 5649 5650 5650 5651 5652 5652 5653 5653 5653 5653 5653 5654 5654 5655 5656 5657 5657 5657 5658 5659 5659 5659 5660 5659 5659 5658 5657 5656 5654 5653 5651 5650 5648
5625 5627 5628 5630 5631 5632 5634 5635 5636 5637 5637 5638 5638 5639 5639 5640 5640 5640 5641 5641 5641 5642 5642 5643 5643 5644 5644 5644 5645 5646 5646 5646 5647 5646 5645 5645 5644 5643 5640 5638 5636 5634 5633
5614 5615 5617 5618 5620 5621 5622 5623 5624 5625 5626 5626 5626 5627 5627 5627 5627 5627 5628 5628 5628 5629 5630 5630 5631 5631 5632 5632 5632 5632 5632 5633 5634 5634 5632 5632 5630 5628 5626 5624 5622 5619 5617
5603 5604 5606 5607 5608 5610 5611 5612 5613 5613 5614 5614 5615 5615 5615 5615 5615 5615 5615 5615 5616 5616 5617 5618 5618 5619 5619 5620 5619 5620 5619 5619 5620 5619 5618 5618 5616 5614 5611 5609 5606 5604 5601
5592 5593 5595 5596 5597 5598 5599 5600 5601 5601 5602 5602 5603 5603 5603 5603 5603 5603 5603 5603 5604 5604 5605 5605 5606 5606 5606 5606 5606 5606 5606 5606 5606 5605 5603 5603 5602 5600 5597 5594 5591 5588 5586
5581 5582 5583 5584 5586 5587 5588 5588 5589 5589 5590 5591 5591 5591 5591 5592 5592 5591 5592 5592 5592 5592 5592 5593 5594 5593 5593 5593 5593 5593 5593 5592 5592 5591 5589 5588 5587 5585 5583 5580 5576 5573 5570
5569 5570 5571 5573 5574 5576 5576 5577 5577 5578 5579 5579 5580 5580 5580 5580 5580 5580 5580 5580 5580 5580 5581 5581 5581 5581 5581 5581 5580 5580 5579 5579 5578 5578 5575 5573 5572 5570 5570 5567 5563 5559 5556